,,Stat5,,Stat1,,Stat2,,Stat3,,Stat4,,Wind1,,Wind1,
time,status,PA1M_AVG,status,PR1M_SUM,status,RH1M_AVG,status,SR1M_AVG,status,TA1M_AVG,status,W1dAve1m,status,W1sAve1m,
2003-08-23, 00:00:00,VALID,920.159,VALID,0,VALID,99.6874,VALID,-0.0339617,VALID,18.6089,VALID,155,VALID,0.0835503,
2003-08-23, 00:01:00,VALID,920.152,VALID,0,VALID,99.6874,VALID,-0.0169808,VALID,18.5831,VALID,116,VALID,0.570513,
2003-08-23, 00:02:00,VALID,920.142,VALID,0,VALID,99.7065,VALID,-0.0339617,VALID,18.5762,VALID,116,VALID,0.378125,
2003-08-23, 00:03:00,VALID,920.148,VALID,0,VALID,99.7205,VALID,-0.101885,VALID,18.5801,VALID,120,VALID,0.229441,
2003-08-23, 00:04:00,VALID,920.156,VALID,0,VALID,99.7548,VALID,-0.0339617,VALID,18.57,VALID,121,VALID,0.363181,
2003-08-23, 00:05:00,VALID,920.159,VALID,0,VALID,99.8032,VALID,-0.0849042,VALID,18.5799,VALID,132,VALID,0.604167,
2003-08-23, 00:06:00,VALID,920.16,VALID,0,VALID,99.8388,VALID,-0.0679233,VALID,18.6022,VALID,139,VALID,0.676448,
2003-08-23, 00:07:00,VALID,920.14,VALID,0,VALID,99.854,VALID,-0.0509425,VALID,18.6285,VALID,145,VALID,0.762821,
2003-08-23, 00:08:00,VALID,920.141,VALID,0,VALID,99.8578,VALID,-0.0849042,VALID,18.6186,VALID,141,VALID,0.765419,
2003-08-23, 00:09:00,VALID,920.115,VALID,0,VALID,99.8782,VALID,-0.0509425,VALID,18.608,VALID,131,VALID,0.697716,
2003-08-23, 00:10:00,VALID,920.105,VALID,0,VALID,99.8896,VALID,-0.0679233,VALID,18.6216,VALID,90,VALID,0.466488,
2003-08-23, 00:11:00,VALID,920.085,VALID,0,VALID,99.8324,VALID,-0.0169808,VALID,18.5536,VALID,71,VALID,0.291266,
2003-08-23, 00:12:00,VALID,920.06,VALID,0,VALID,99.7714,VALID,-0.0169808,VALID,18.5116,VALID,71,VALID,0.197266,
2003-08-23, 00:13:00,VALID,920.041,VALID,0,VALID,99.8413,VALID,-0.0509425,VALID,18.5181,VALID,72,VALID,0.104519,
2003-08-23, 00:14:00,VALID,920.017,VALID,0,VALID,99.8998,VALID,-0.0169808,VALID,18.5568,VALID,76,VALID,0.39082,
2003-08-23, 00:15:00,VALID,919.988,VALID,0,VALID,99.9189,VALID,-0.0849042,VALID,18.5826,VALID,156,VALID,0.490785,
2003-08-23, 00:16:00,VALID,919.966,VALID,0,VALID,99.9252,VALID,-0.0679233,VALID,18.5958,VALID,160,VALID,0.125411,
2003-08-23, 00:17:00,VALID,919.958,VALID,0,VALID,99.9468,VALID,-0.0339617,VALID,18.6119,VALID,160,VALID,0.180889,
2003-08-23, 00:18:00,VALID,919.94,VALID,0,VALID,99.9545,VALID,0,VALID,18.6241,VALID,160,VALID,0.00801809,
2003-08-23, 00:19:00,VALID,919.921,VALID,0,VALID,99.9608,VALID,0,VALID,18.6274,VALID,160,VALID,0,
2003-08-23, 00:20:00,VALID,919.899,VALID,0,VALID,99.9621,VALID,-0.0169808,VALID,18.6308,VALID,160,VALID,0.131836,
2003-08-23, 00:21:00,VALID,919.896,VALID,0,VALID,99.9494,VALID,-0.0509425,VALID,18.6343,VALID,160,VALID,0.0401182,
2003-08-23, 00:22:00,VALID,919.865,VALID,0,VALID,99.9608,VALID,-0.0679233,VALID,18.6412,VALID,160,VALID,0.0300781,
2003-08-23, 00:23:00,VALID,919.846,VALID,0,VALID,99.9507,VALID,-0.0679233,VALID,18.6283,VALID,114,VALID,0.223958,
2003-08-23, 00:24:00,VALID,919.813,VALID,0,VALID,99.9011,VALID,-0.0169808,VALID,18.563,VALID,50,VALID,0.0337171,
2003-08-23, 00:25:00,VALID,919.795,VALID,0,VALID,99.84,VALID,-0.0509425,VALID,18.5317,VALID,50,VALID,0,
2003-08-23, 00:26:00,VALID,919.787,VALID,0,VALID,99.7854,VALID,0,VALID,18.5088,VALID,50,VALID,0,
2003-08-23, 00:27:00,VALID,919.79,VALID,0,VALID,99.7434,VALID,-0.0169808,VALID,18.4899,VALID,50,VALID,0.123397,
2003-08-23, 00:28:00,VALID,919.769,VALID,0,VALID,99.7307,VALID,0,VALID,18.4701,VALID,50,VALID,0.456445,
2003-08-23, 00:29:00,VALID,919.744,VALID,0,VALID,99.7854,VALID,-0.0339617,VALID,18.4701,VALID,50,VALID,0.633446,
2003-08-23, 00:30:00,VALID,919.717,VALID,0,VALID,99.8133,VALID,-0.0169808,VALID,18.4987,VALID,50,VALID,0.400391,
2003-08-23, 00:31:00,VALID,919.703,VALID,0,VALID,99.6862,VALID,0,VALID,18.4673,VALID,50,VALID,0.364784,
2003-08-23, 00:32:00,VALID,919.687,VALID,0,VALID,99.5412,VALID,-0.0339617,VALID,18.4251,VALID,50,VALID,0.233141,
2003-08-23, 00:33:00,VALID,919.667,VALID,0,VALID,99.3759,VALID,-0.0169808,VALID,18.3728,VALID,50,VALID,0.380609,
2003-08-23, 00:34:00,VALID,919.653,VALID,0,VALID,99.3797,VALID,0,VALID,18.3375,VALID,52,VALID,0.575452,
2003-08-23, 00:35:00,VALID,919.632,VALID,0,VALID,99.7472,VALID,0,VALID,18.4189,VALID,74,VALID,0.636218,
2003-08-23, 00:36:00,VALID,919.597,VALID,0,VALID,99.8489,VALID,0,VALID,18.5183,VALID,82,VALID,0.756445,
2003-08-23, 00:37:00,VALID,919.558,VALID,0,VALID,99.8922,VALID,0,VALID,18.5926,VALID,88,VALID,0.864443,
2003-08-23, 00:38:00,VALID,919.526,VALID,0,VALID,99.9214,VALID,0.0169808,VALID,18.6664,VALID,89,VALID,0.812109,
2003-08-23, 00:39:00,VALID,919.496,VALID,0,VALID,99.896,VALID,0,VALID,18.7153,VALID,98,VALID,0.615785,
2003-08-23, 00:40:00,VALID,919.488,VALID,0,VALID,99.7688,VALID,-0.0169808,VALID,18.6994,VALID,101,VALID,0.172903,
2003-08-23, 00:41:00,VALID,919.483,VALID,0,VALID,99.4585,VALID,0,VALID,18.6666,VALID,106,VALID,0.316506,
2003-08-23, 00:42:00,VALID,919.488,VALID,0,VALID,99.3416,VALID,0,VALID,18.6216,VALID,155,VALID,0.818668,
2003-08-23, 00:43:00,VALID,919.491,VALID,0,VALID,99.2971,VALID,0,VALID,18.5889,VALID,149,VALID,0.61238,
2003-08-23, 00:44:00,VALID,919.496,VALID,0,VALID,99.161,VALID,0,VALID,18.5635,VALID,143,VALID,0.782031,
2003-08-23, 00:45:00,VALID,919.497,VALID,0,VALID,99.2169,VALID,0.0169808,VALID,18.5248,VALID,145,VALID,1.02238,
2003-08-23, 00:46:00,VALID,919.5,VALID,0,VALID,99.4179,VALID,0,VALID,18.5312,VALID,154,VALID,1.05117,
2003-08-23, 00:47:00,VALID,919.509,VALID,0,VALID,99.4916,VALID,-0.0169808,VALID,18.5377,VALID,153,VALID,0.740785,
2003-08-23, 00:48:00,VALID,919.507,VALID,0,VALID,99.5018,VALID,-0.0169808,VALID,18.5282,VALID,145,VALID,0.682155,
2003-08-23, 00:49:00,VALID,919.518,VALID,0,VALID,99.4585,VALID,0,VALID,18.4987,VALID,144,VALID,0.328125,
2003-08-23, 00:50:00,VALID,919.514,VALID,0,VALID,99.3912,VALID,0,VALID,18.4537,VALID,139,VALID,0.485814,
2003-08-23, 00:51:00,VALID,919.508,VALID,0,VALID,99.3288,VALID,0,VALID,18.4118,VALID,138,VALID,0.33153,
2003-08-23, 00:52:00,VALID,919.504,VALID,0,VALID,99.2932,VALID,0,VALID,18.3569,VALID,138,VALID,0.221484,
2003-08-23, 00:53:00,VALID,919.473,VALID,0,VALID,99.353,VALID,0,VALID,18.3218,VALID,138,VALID,0.137458,
2003-08-23, 00:54:00,VALID,919.456,VALID,0,VALID,99.3823,VALID,0,VALID,18.2988,VALID,138,VALID,0.102148,
2003-08-23, 00:55:00,VALID,919.423,VALID,0,VALID,99.3784,VALID,0,VALID,18.2635,VALID,138,VALID,0.219151,
2003-08-23, 00:56:00,VALID,919.411,VALID,0,VALID,99.367,VALID,-0.0849042,VALID,18.2323,VALID,138,VALID,0.0372122,
2003-08-23, 00:57:00,VALID,919.388,VALID,0,VALID,99.3848,VALID,-0.101885,VALID,18.2164,VALID,138,VALID,0.0895433,
2003-08-23, 00:58:00,VALID,919.377,VALID,0,VALID,99.4496,VALID,-0.101885,VALID,18.2067,VALID,138,VALID,0,
2003-08-23, 00:59:00,VALID,919.372,VALID,0,VALID,99.484,VALID,-0.101885,VALID,18.2035,VALID,138,VALID,0.000600962,
2003-08-23, 01:00:00,VALID,919.382,VALID,0,VALID,99.5336,VALID,-0.101885,VALID,18.1841,VALID,138,VALID,0.0640625,
2003-08-23, 01:01:00,VALID,919.378,VALID,0,VALID,99.545,VALID,-0.101885,VALID,18.1774,VALID,138,VALID,0.419552,
2003-08-23, 01:02:00,VALID,919.37,VALID,0,VALID,99.5437,VALID,-0.101885,VALID,18.1841,VALID,140,VALID,0.764844,
2003-08-23, 01:03:00,VALID,919.363,VALID,0,VALID,99.7307,VALID,-0.101885,VALID,18.1906,VALID,148,VALID,0.356971,
2003-08-23, 01:04:00,VALID,919.365,VALID,0,VALID,99.6493,VALID,-0.101885,VALID,18.1648,VALID,146,VALID,0.297903,
2003-08-23, 01:05:00,VALID,919.351,VALID,0,VALID,99.826,VALID,-0.101885,VALID,18.2065,VALID,143,VALID,0.336939,
2003-08-23, 01:06:00,VALID,919.334,VALID,0,VALID,99.7854,VALID,-0.101885,VALID,18.2201,VALID,144,VALID,0.540502,
2003-08-23, 01:07:00,VALID,919.311,VALID,0,VALID,99.7854,VALID,-0.152827,VALID,18.2199,VALID,146,VALID,0.621394,
2003-08-23, 01:08:00,VALID,919.29,VALID,0,VALID,99.8578,VALID,-0.101885,VALID,18.2489,VALID,147,VALID,0.703711,
2003-08-23, 01:09:00,VALID,919.263,VALID,0,VALID,99.9062,VALID,-0.152827,VALID,18.2946,VALID,147,VALID,0.415118,
2003-08-23, 01:10:00,VALID,919.247,VALID,0,VALID,99.896,VALID,-0.101885,VALID,18.2877,VALID,139,VALID,0.265234,
2003-08-23, 01:11:00,VALID,919.22,VALID,0,VALID,99.7548,VALID,-0.0339617,VALID,18.2346,VALID,136,VALID,0.203526,
2003-08-23, 01:12:00,VALID,919.194,VALID,0,VALID,99.5895,VALID,-0.0169808,VALID,18.1604,VALID,135,VALID,0.273438,
2003-08-23, 01:13:00,VALID,919.163,VALID,0,VALID,99.7294,VALID,0,VALID,18.1311,VALID,135,VALID,0.548077,
2003-08-23, 01:14:00,VALID,919.134,VALID,0,VALID,99.8299,VALID,-0.0169808,VALID,18.1505,VALID,133,VALID,0.262952,
2003-08-23, 01:15:00,VALID,919.102,VALID,0,VALID,99.7205,VALID,-0.0169808,VALID,18.1246,VALID,133,VALID,0.274038,
2003-08-23, 01:16:00,VALID,919.071,VALID,0,VALID,99.7459,VALID,0,VALID,18.1087,VALID,133,VALID,0.569336,
2003-08-23, 01:17:00,VALID,919.057,VALID,0,VALID,99.868,VALID,0,VALID,18.1512,VALID,132,VALID,0.555743,
2003-08-23, 01:18:00,VALID,919.04,VALID,0,VALID,99.8896,VALID,-0.0339617,VALID,18.1671,VALID,131,VALID,0.583594,
2003-08-23, 01:19:00,VALID,919.021,VALID,0,VALID,99.9214,VALID,-0.0169808,VALID,18.1998,VALID,131,VALID,0.596554,
2003-08-23, 01:20:00,VALID,919.027,VALID,0,VALID,99.9481,VALID,-0.0169808,VALID,18.2386,VALID,131,VALID,0.212582,
2003-08-23, 01:21:00,VALID,918.999,VALID,0,VALID,99.9354,VALID,-0.0169808,VALID,18.1989,VALID,131,VALID,0.289263,
2003-08-23, 01:22:00,VALID,918.984,VALID,0,VALID,99.9807,VALID,-0.0509425,VALID,18.2446,VALID,131,VALID,0.39227,
2003-08-23, 01:23:00,VALID,918.953,VALID,0,VALID,99.9944,VALID,-0.0339617,VALID,18.2669,VALID,133,VALID,0.44391,
2003-08-23, 01:24:00,VALID,918.933,VALID,0,VALID,99.9771,VALID,-0.0169808,VALID,18.2637,VALID,139,VALID,0.280859,
2003-08-23, 01:25:00,VALID,918.914,VALID,0,VALID,99.9023,VALID,0,VALID,18.2252,VALID,139,VALID,0.26647,
2003-08-23, 01:26:00,VALID,918.91,VALID,0,VALID,99.7548,VALID,-0.0509425,VALID,18.1507,VALID,140,VALID,0.495117,
2003-08-23, 01:27:00,VALID,918.884,VALID,0,VALID,99.8375,VALID,-0.0169808,VALID,18.1546,VALID,150,VALID,0.960136,
2003-08-23, 01:28:00,VALID,918.86,VALID,0,VALID,99.9201,VALID,-0.0679233,VALID,18.177,VALID,147,VALID,1.07299,
2003-08-23, 01:29:00,VALID,918.819,VALID,0,VALID,99.9545,VALID,-0.0509425,VALID,18.216,VALID,147,VALID,0.928886,
2003-08-23, 01:30:00,VALID,918.793,VALID,0,VALID,99.9634,VALID,-0.0509425,VALID,18.2157,VALID,142,VALID,0.667558,
2003-08-23, 01:31:00,VALID,918.755,VALID,0,VALID,99.9659,VALID,-0.0509425,VALID,18.2162,VALID,144,VALID,0.486779,
2003-08-23, 01:32:00,VALID,918.732,VALID,0,VALID,99.9685,VALID,-0.0339617,VALID,18.2127,VALID,144,VALID,0.178125,
2003-08-23, 01:33:00,VALID,918.72,VALID,0,VALID,99.9418,VALID,-0.0849042,VALID,18.1705,VALID,144,VALID,0,
2003-08-23, 01:34:00,VALID,918.705,VALID,0,VALID,99.8133,VALID,-0.0679233,VALID,18.0967,VALID,144,VALID,0,
2003-08-23, 01:35:00,VALID,918.707,VALID,0,VALID,99.6556,VALID,-0.0509425,VALID,18.0057,VALID,144,VALID,0,
2003-08-23, 01:36:00,VALID,918.711,VALID,0,VALID,99.6124,VALID,-0.0849042,VALID,17.9415,VALID,144,VALID,0,
2003-08-23, 01:37:00,VALID,918.714,VALID,0,VALID,99.5234,VALID,-0.0509425,VALID,17.8701,VALID,144,VALID,0,
2003-08-23, 01:38:00,VALID,918.694,VALID,0,VALID,99.5819,VALID,-0.0679233,VALID,17.8186,VALID,144,VALID,0,
2003-08-23, 01:39:00,VALID,918.674,VALID,0,VALID,99.5374,VALID,-0.0339617,VALID,17.8055,VALID,98,VALID,0.176482,
2003-08-23, 01:40:00,VALID,918.654,VALID,0,VALID,99.5437,VALID,-0.0679233,VALID,17.7633,VALID,74,VALID,0.422266,
2003-08-23, 01:41:00,VALID,918.629,VALID,0,VALID,99.7459,VALID,0,VALID,17.8159,VALID,73,VALID,0.463682,
2003-08-23, 01:42:00,VALID,918.622,VALID,0,VALID,99.6582,VALID,-0.0849042,VALID,17.8193,VALID,43,VALID,0.538672,
2003-08-23, 01:43:00,VALID,918.608,VALID,0,VALID,99.4229,VALID,-0.0339617,VALID,17.7515,VALID,49,VALID,0.680288,
2003-08-23, 01:44:00,VALID,918.589,VALID,0,VALID,99.3352,VALID,-0.0509425,VALID,17.6701,VALID,49,VALID,0.573602,
2003-08-23, 01:45:00,VALID,918.573,VALID,0,VALID,99.2691,VALID,-0.0679233,VALID,17.6547,VALID,49,VALID,0.440705,
2003-08-23, 01:46:00,VALID,918.566,VALID,0,VALID,99.3212,VALID,-0.0679233,VALID,17.6192,VALID,49,VALID,0.452919,
2003-08-23, 01:47:00,VALID,918.558,VALID,0,VALID,99.8044,VALID,-0.101885,VALID,17.687,VALID,60,VALID,0.489383,
2003-08-23, 01:48:00,VALID,918.567,VALID,0,VALID,99.9769,VALID,0,VALID,17.8223,VALID,114,VALID,0.667969,
2003-08-23, 01:49:00,VALID,918.552,VALID,0,VALID,100,VALID,-0.0679233,VALID,17.9932,VALID,113,VALID,0.77386,
2003-08-23, 01:50:00,VALID,918.537,VALID,0,VALID,100,VALID,-0.0679233,VALID,18.0804,VALID,116,VALID,0.37207,
2003-08-23, 01:51:00,VALID,918.538,VALID,0,VALID,100,VALID,-0.0849042,VALID,18.1096,VALID,116,VALID,0.339143,
2003-08-23, 01:52:00,VALID,918.542,VALID,0,VALID,100,VALID,-0.0679233,VALID,18.0873,VALID,116,VALID,0.401521,
2003-08-23, 01:53:00,VALID,918.53,VALID,0,VALID,100,VALID,-0.101885,VALID,18.0907,VALID,116,VALID,0.390024,
2003-08-23, 01:54:00,VALID,918.51,VALID,0,VALID,100,VALID,-0.0679233,VALID,18.087,VALID,116,VALID,0.504112,
2003-08-23, 01:55:00,VALID,918.499,VALID,0,VALID,100,VALID,-0.101885,VALID,18.1196,VALID,116,VALID,0.566106,
2003-08-23, 01:56:00,VALID,918.486,VALID,0,VALID,100,VALID,-0.0509425,VALID,18.1518,VALID,125,VALID,0.776367,
2003-08-23, 01:57:00,VALID,918.484,VALID,0,VALID,100,VALID,-0.0679233,VALID,18.1966,VALID,123,VALID,0.854519,
2003-08-23, 01:58:00,VALID,918.469,VALID,0,VALID,100,VALID,-0.0849042,VALID,18.2353,VALID,116,VALID,0.654297,
2003-08-23, 01:59:00,VALID,918.476,VALID,0,VALID,100,VALID,-0.0679233,VALID,18.21,VALID,125,VALID,0.529848,
2003-08-23, 02:00:00,VALID,918.466,VALID,0,VALID,100,VALID,-0.0679233,VALID,18.1611,VALID,123,VALID,0.481086,
2003-08-23, 02:01:00,VALID,918.46,VALID,0,VALID,99.9456,VALID,-0.0679233,VALID,18.0905,VALID,122,VALID,0.577324,
2003-08-23, 02:02:00,VALID,918.46,VALID,0,VALID,99.9853,VALID,-0.0169808,VALID,18.0965,VALID,120,VALID,1.07545,
2003-08-23, 02:03:00,VALID,918.462,VALID,0,VALID,100,VALID,0,VALID,18.2093,VALID,118,VALID,1.0649,
2003-08-23, 02:04:00,VALID,918.459,VALID,0,VALID,100,VALID,-0.0169808,VALID,18.2773,VALID,122,VALID,0.719336,
2003-08-23, 02:05:00,VALID,918.446,VALID,0,VALID,100,VALID,-0.0169808,VALID,18.316,VALID,132,VALID,0.843328,
2003-08-23, 02:06:00,VALID,918.446,VALID,0,VALID,100,VALID,-0.0339617,VALID,18.3255,VALID,133,VALID,0.667773,
2003-08-23, 02:07:00,VALID,918.449,VALID,0,VALID,100,VALID,-0.0509425,VALID,18.3195,VALID,125,VALID,0.789463,
2003-08-23, 02:08:00,VALID,918.467,VALID,0,VALID,100,VALID,0,VALID,18.3253,VALID,132,VALID,0.826275,
2003-08-23, 02:09:00,VALID,918.471,VALID,0,VALID,100,VALID,-0.0339617,VALID,18.3423,VALID,135,VALID,0.936098,
2003-08-23, 02:10:00,VALID,918.482,VALID,0,VALID,100,VALID,-0.0339617,VALID,18.3223,VALID,126,VALID,0.690584,
2003-08-23, 02:11:00,VALID,918.49,VALID,0,VALID,100,VALID,-0.0339617,VALID,18.2997,VALID,133,VALID,0.939303,
2003-08-23, 02:12:00,VALID,918.495,VALID,0,VALID,100,VALID,-0.0169808,VALID,18.2674,VALID,127,VALID,0.840625,
2003-08-23, 02:13:00,VALID,918.499,VALID,0,VALID,100,VALID,-0.0509425,VALID,18.2517,VALID,110,VALID,0.735431,
2003-08-23, 02:14:00,VALID,918.505,VALID,0,VALID,100,VALID,-0.0339617,VALID,18.2351,VALID,113,VALID,1.00137,
2003-08-23, 02:15:00,VALID,918.522,VALID,0,VALID,100,VALID,-0.0509425,VALID,18.2386,VALID,114,VALID,0.919471,
2003-08-23, 02:16:00,VALID,918.522,VALID,0,VALID,100,VALID,-0.0339617,VALID,18.242,VALID,121,VALID,0.870066,
2003-08-23, 02:17:00,VALID,918.534,VALID,0,VALID,100,VALID,-0.0339617,VALID,18.2868,VALID,124,VALID,1.21114,
2003-08-23, 02:18:00,VALID,918.534,VALID,0,VALID,100,VALID,0,VALID,18.3091,VALID,128,VALID,1.27837,
2003-08-23, 02:19:00,VALID,918.537,VALID,0,VALID,100,VALID,-0.0169808,VALID,18.3255,VALID,132,VALID,1.29127,
2003-08-23, 02:20:00,VALID,918.544,VALID,0,VALID,100,VALID,-0.0339617,VALID,18.3091,VALID,133,VALID,1.18301,
2003-08-23, 02:21:00,VALID,918.522,VALID,0,VALID,100,VALID,-0.0169808,VALID,18.3059,VALID,125,VALID,1.21199,
2003-08-23, 02:22:00,VALID,918.517,VALID,0,VALID,100,VALID,-0.0679233,VALID,18.3156,VALID,123,VALID,0.860156,
2003-08-23, 02:23:00,VALID,918.5,VALID,0,VALID,100,VALID,-0.0169808,VALID,18.3227,VALID,113,VALID,0.858173,
2003-08-23, 02:24:00,VALID,918.498,VALID,0,VALID,100,VALID,-0.0169808,VALID,18.2824,VALID,110,VALID,0.893503,
2003-08-23, 02:25:00,VALID,918.492,VALID,0,VALID,100,VALID,-0.0339617,VALID,18.293,VALID,95,VALID,1.02364,
2003-08-23, 02:26:00,VALID,918.478,VALID,0,VALID,100,VALID,-0.0849042,VALID,18.316,VALID,104,VALID,0.868627,
2003-08-23, 02:27:00,VALID,918.475,VALID,0,VALID,100,VALID,-0.0339617,VALID,18.3218,VALID,108,VALID,0.823918,
2003-08-23, 02:28:00,VALID,918.477,VALID,0,VALID,100,VALID,-0.0509425,VALID,18.3287,VALID,90,VALID,0.591602,
2003-08-23, 02:29:00,VALID,918.477,VALID,0,VALID,100,VALID,-0.0169808,VALID,18.3283,VALID,99,VALID,0.782095,
2003-08-23, 02:30:00,VALID,918.469,VALID,0,VALID,100,VALID,-0.0679233,VALID,18.3322,VALID,81,VALID,0.772266,
2003-08-23, 02:31:00,VALID,918.453,VALID,0,VALID,100,VALID,0,VALID,18.3352,VALID,74,VALID,0.874199,
2003-08-23, 02:32:00,VALID,918.448,VALID,0,VALID,100,VALID,-0.0509425,VALID,18.3285,VALID,82,VALID,0.76912,
2003-08-23, 02:33:00,VALID,918.443,VALID,0,VALID,100,VALID,-0.0509425,VALID,18.3029,VALID,92,VALID,0.705529,
2003-08-23, 02:34:00,VALID,918.439,VALID,0,VALID,100,VALID,-0.0849042,VALID,18.3091,VALID,92,VALID,0.793997,
2003-08-23, 02:35:00,VALID,918.432,VALID,0,VALID,100,VALID,-0.0169808,VALID,18.3421,VALID,106,VALID,0.930088,
2003-08-23, 02:36:00,VALID,918.434,VALID,0,VALID,100,VALID,-0.0679233,VALID,18.3742,VALID,98,VALID,0.708594,
2003-08-23, 02:37:00,VALID,918.435,VALID,0,VALID,100,VALID,-0.101885,VALID,18.3645,VALID,121,VALID,0.812289,
2003-08-23, 02:38:00,VALID,918.436,VALID,0,VALID,100,VALID,-0.0679233,VALID,18.3317,VALID,126,VALID,0.623828,
2003-08-23, 02:39:00,VALID,918.431,VALID,0,VALID,99.9883,VALID,-0.101885,VALID,18.3257,VALID,127,VALID,0.915264,
2003-08-23, 02:40:00,VALID,918.421,VALID,0,VALID,99.999,VALID,-0.0849042,VALID,18.3324,VALID,108,VALID,0.654194,
2003-08-23, 02:41:00,VALID,918.405,VALID,0,VALID,99.999,VALID,0.0169808,VALID,18.3472,VALID,93,VALID,0.433494,
2003-08-23, 02:42:00,VALID,918.38,VALID,0,VALID,100,VALID,0,VALID,18.3472,VALID,110,VALID,0.911801,
2003-08-23, 02:43:00,VALID,918.38,VALID,0,VALID,100,VALID,0.0509425,VALID,18.3792,VALID,109,VALID,0.791266,
2003-08-23, 02:44:00,VALID,918.364,VALID,0,VALID,100,VALID,0.0679233,VALID,18.3855,VALID,85,VALID,0.80625,
2003-08-23, 02:45:00,VALID,918.378,VALID,0,VALID,100,VALID,0,VALID,18.3857,VALID,76,VALID,0.711149,
2003-08-23, 02:46:00,VALID,918.39,VALID,0,VALID,99.9837,VALID,0.0169808,VALID,18.3862,VALID,88,VALID,0.579492,
2003-08-23, 02:47:00,VALID,918.376,VALID,0,VALID,99.9809,VALID,0.0679233,VALID,18.385,VALID,91,VALID,0.664663,
2003-08-23, 02:48:00,VALID,918.371,VALID,0,VALID,99.9758,VALID,0.0509425,VALID,18.4078,VALID,112,VALID,0.723067,
2003-08-23, 02:49:00,VALID,918.372,VALID,0,VALID,99.9545,VALID,0,VALID,18.4274,VALID,121,VALID,0.723157,
2003-08-23, 02:50:00,VALID,918.371,VALID,0,VALID,99.9392,VALID,0.0169808,VALID,18.4406,VALID,121,VALID,0.771382,
2003-08-23, 02:51:00,VALID,918.359,VALID,0,VALID,99.9367,VALID,0.0339617,VALID,18.4632,VALID,127,VALID,0.733574,
2003-08-23, 02:52:00,VALID,918.37,VALID,0,VALID,99.91,VALID,0.0339617,VALID,18.4666,VALID,126,VALID,0.845117,
2003-08-23, 02:53:00,VALID,918.377,VALID,0,VALID,99.896,VALID,0.0339617,VALID,18.4759,VALID,127,VALID,0.812289,
2003-08-23, 02:54:00,VALID,918.39,VALID,0,VALID,99.8477,VALID,0.0339617,VALID,18.486,VALID,127,VALID,1.03828,
2003-08-23, 02:55:00,VALID,918.385,VALID,0,VALID,99.7866,VALID,0,VALID,18.4729,VALID,134,VALID,0.897035,
2003-08-23, 02:56:00,VALID,918.38,VALID,0,VALID,99.7408,VALID,-0.0679233,VALID,18.4699,VALID,122,VALID,0.817023,
2003-08-23, 02:57:00,VALID,918.373,VALID,0,VALID,99.615,VALID,-0.0679233,VALID,18.4777,VALID,118,VALID,1.04968,
2003-08-23, 02:58:00,VALID,918.363,VALID,0,VALID,99.5107,VALID,-0.0849042,VALID,18.4611,VALID,115,VALID,0.903166,
2003-08-23, 02:59:00,VALID,918.351,VALID,0,VALID,99.3797,VALID,-0.0679233,VALID,18.4514,VALID,93,VALID,0.758814,
2003-08-23, 03:00:00,VALID,918.333,VALID,0,VALID,99.2869,VALID,-0.0509425,VALID,18.4482,VALID,92,VALID,0.75957,
2003-08-23, 03:01:00,VALID,918.321,VALID,0,VALID,99.2525,VALID,-0.0339617,VALID,18.439,VALID,102,VALID,0.61212,
2003-08-23, 03:02:00,VALID,918.304,VALID,0,VALID,99.1623,VALID,-0.0339617,VALID,18.4417,VALID,97,VALID,0.385547,
2003-08-23, 03:03:00,VALID,918.284,VALID,0,VALID,99.1343,VALID,-0.0849042,VALID,18.4323,VALID,94,VALID,0.439103,
2003-08-23, 03:04:00,VALID,918.285,VALID,0,VALID,98.9092,VALID,-0.0509425,VALID,18.406,VALID,85,VALID,0.188117,
2003-08-23, 03:05:00,VALID,918.259,VALID,0,VALID,98.5099,VALID,-0.0679233,VALID,18.3156,VALID,89,VALID,0.0729167,
2003-08-23, 03:06:00,VALID,918.27,VALID,0,VALID,98.2963,VALID,-0.0509425,VALID,18.2579,VALID,40,VALID,0.253906,
2003-08-23, 03:07:00,VALID,918.252,VALID,0,VALID,98.1017,VALID,-0.0169808,VALID,18.183,VALID,24,VALID,0.259615,
2003-08-23, 03:08:00,VALID,918.263,VALID,0,VALID,98.1971,VALID,-0.0679233,VALID,18.141,VALID,24,VALID,0.264258,
2003-08-23, 03:09:00,VALID,918.269,VALID,0,VALID,98.22,VALID,-0.0679233,VALID,18.1286,VALID,24,VALID,0,
2003-08-23, 03:10:00,VALID,918.276,VALID,0,VALID,97.9962,VALID,-0.0679233,VALID,18.0478,VALID,24,VALID,0.191211,
2003-08-23, 03:11:00,VALID,918.27,VALID,0,VALID,98.0242,VALID,-0.0169808,VALID,17.9955,VALID,24,VALID,0.0268429,
2003-08-23, 03:12:00,VALID,918.266,VALID,0,VALID,97.9809,VALID,-0.0509425,VALID,17.9605,VALID,24,VALID,0,
2003-08-23, 03:13:00,VALID,918.26,VALID,0,VALID,97.9631,VALID,-0.0339617,VALID,17.912,VALID,24,VALID,0,
2003-08-23, 03:14:00,VALID,918.269,VALID,0,VALID,97.967,VALID,-0.0509425,VALID,17.8737,VALID,24,VALID,0,
2003-08-23, 03:15:00,VALID,918.269,VALID,0,VALID,98.0471,VALID,0,VALID,17.8378,VALID,24,VALID,0,
2003-08-23, 03:16:00,VALID,918.278,VALID,0,VALID,98.1501,VALID,-0.0339617,VALID,17.8216,VALID,24,VALID,0,
2003-08-23, 03:17:00,VALID,918.268,VALID,0,VALID,98.3535,VALID,0,VALID,17.812,VALID,24,VALID,0,
2003-08-23, 03:18:00,VALID,918.243,VALID,0,VALID,98.852,VALID,-0.0509425,VALID,17.8442,VALID,24,VALID,0,
2003-08-23, 03:19:00,VALID,918.24,VALID,0,VALID,98.9982,VALID,-0.0849042,VALID,17.8933,VALID,24,VALID,0.00721154,
2003-08-23, 03:20:00,VALID,918.244,VALID,0,VALID,98.7808,VALID,0,VALID,17.8901,VALID,72,VALID,0.277755,
2003-08-23, 03:21:00,VALID,918.268,VALID,0,VALID,98.8075,VALID,-0.0509425,VALID,17.8219,VALID,117,VALID,0.479968,
2003-08-23, 03:22:00,VALID,918.29,VALID,0,VALID,98.8711,VALID,0,VALID,17.8159,VALID,117,VALID,0.354646,
2003-08-23, 03:23:00,VALID,918.311,VALID,0,VALID,98.899,VALID,-0.0339617,VALID,17.7543,VALID,91,VALID,0.596354,
2003-08-23, 03:24:00,VALID,918.318,VALID,0,VALID,99.0961,VALID,-0.0339617,VALID,17.7513,VALID,77,VALID,0.713867,
2003-08-23, 03:25:00,VALID,918.317,VALID,0,VALID,99.1292,VALID,-0.0679233,VALID,17.7261,VALID,69,VALID,0.83277,
2003-08-23, 03:26:00,VALID,918.324,VALID,0,VALID,99.0987,VALID,0.0169808,VALID,17.6753,VALID,63,VALID,1.02676,
2003-08-23, 03:27:00,VALID,918.316,VALID,0,VALID,99.1941,VALID,0.0509425,VALID,17.6464,VALID,51,VALID,0.902644,
2003-08-23, 03:28:00,VALID,918.313,VALID,0,VALID,99.2716,VALID,0.0339617,VALID,17.6241,VALID,49,VALID,1.0148,
2003-08-23, 03:29:00,VALID,918.303,VALID,0,VALID,99.512,VALID,0.0339617,VALID,17.6434,VALID,49,VALID,1.02304,
2003-08-23, 03:30:00,VALID,918.296,VALID,0,VALID,99.6442,VALID,0.0679233,VALID,17.6723,VALID,57,VALID,0.934416,
2003-08-23, 03:31:00,VALID,918.282,VALID,0,VALID,99.821,VALID,0.0339617,VALID,17.7045,VALID,71,VALID,0.950321,
2003-08-23, 03:32:00,VALID,918.286,VALID,0,VALID,99.8896,VALID,0.0169808,VALID,17.7564,VALID,73,VALID,0.886719,
2003-08-23, 03:33:00,VALID,918.278,VALID,0,VALID,99.9341,VALID,0.0339617,VALID,17.7855,VALID,80,VALID,1.08467,
2003-08-23, 03:34:00,VALID,918.298,VALID,0,VALID,99.9786,VALID,0.0339617,VALID,17.8244,VALID,78,VALID,1.36973,
2003-08-23, 03:35:00,VALID,918.3,VALID,0,VALID,100,VALID,0.0339617,VALID,17.8858,VALID,70,VALID,1.27304,
2003-08-23, 03:36:00,VALID,918.299,VALID,0,VALID,100,VALID,0.0169808,VALID,17.895,VALID,80,VALID,1.19326,